Waarnemingen

Advertentie
Mijn weer
Putbus, Duitsland (10093): temperatuur & dauwpunt: 20.03.2017 00:00:00 - 26.03.2017 00:00:00 (CET)Putbus, Duitsland (10093): temperatuur 5cm & temperatuur -5cm: 20.03.2017 00:00:00 - 26.03.2017 00:00:00 (CET)Putbus, Duitsland (10093): temperatuur -20cm & temperatuur -100cm: 20.03.2017 00:00:00 - 26.03.2017 00:00:00 (CET)Putbus, Duitsland (10093): windsnelheid & windstoten: 20.03.2017 00:00:00 - 26.03.2017 00:00:00 (CET)Putbus, Duitsland (10093): windrichting: 20.03.2017 00:00:00 - 26.03.2017 00:00:00 (CET)Putbus, Duitsland (10093): luchtdruk: 20.03.2017 00:00:00 - 26.03.2017 00:00:00 (CET)Putbus, Duitsland (10093): zicht: 20.03.2017 00:00:00 - 26.03.2017 00:00:00 (CET)Putbus, Duitsland (10093): Zonneschijnduur: 20.03.2017 00:00:00 - 26.03.2017 00:00:00 (CET)Putbus, Duitsland (10093): neerslag: 20.03.2017 00:00:00 - 26.03.2017 00:00:00 (CET)
Datum & Tijd tt [°C] td [°C] tt 5cm [°C] tt -5cm [°C] tt -20cm [°C] tt -100cm [°C] ff [km/u] ff [kn] fx [km/u] fx [kn] dd ppp [hPa] vv [km] sd [min] rr [mm]
26.03.2017 00:00:00 3,9 0,2 1,2 2,3 5,6 5,9 13 7 21 11 NW 1025,5 33 0 0,0
25.03.2017 23:00:00 4,5 0,7 2,1 2,8 5,9 5,9 14 8 18 10 NNW 1025,5 32 0 0,0
25.03.2017 22:00:00 4,4 1,0 1,6 3,4 6,2 5,9 11 6 18 10 NW 1025,4 31 0 0,0
25.03.2017 21:00:00 4,7 1,4 1,7 4,2 6,6 5,9 9 5 16 9 NW 1025,0 31 0 0,0
25.03.2017 20:00:00 5,4 2,3 2,7 5,1 6,9 5,9 8 5 20 11 WNW 1024,7 30 0 0,0
25.03.2017 19:00:00 6,3 2,4 4,6 6,4 7,0 5,9 14 7 22 12 WNW 1025,1 36 0 0,0
25.03.2017 18:00:00 7,1 2,9 6,2 7,7 7,1 5,9 13 7 27 15 WNW 1025,1 35 0 0,0
25.03.2017 17:00:00 7,9 2,6 8,2 9,2 6,9 5,9 19 11 29 16 NW 1025,3 38 36 0,0
25.03.2017 16:00:00 8,2 2,8 10,1 9,9 6,6 5,9 21 11 33 18 NW 1026,0 20 45 0,0
25.03.2017 15:00:00 8,3 3,6 11,6 9,9 6,3 5,9 23 13 39 21 WNW 1026,6 16 25 0,0
25.03.2017 14:00:00 7,7 3,0 9,0 9,2 5,9 5,9 26 14 40 22 NW 1026,6 23 24 0,0
25.03.2017 13:00:00 7,2 3,3 8,8 8,8 5,5 5,9 22 12 35 19 WNW 1027,5 21 4 0,0
25.03.2017 12:00:00 6,4 2,8 7,9 7,8 5,1 5,9 22 12 40 21 NW 1028,0 23 0 0,0
25.03.2017 11:00:00 6,1 2,5 8,2 7,5 4,8 5,9 25 13 39 21 NW 1028,4 38 10 0,0
25.03.2017 10:00:00 5,0 2,7 6,2 5,3 4,6 5,9 21 11 37 20 WNW 1028,6 27 0 0,0
25.03.2017 09:00:00 4,9 2,4 5,9 4,9 4,5 5,9 23 13 39 21 NW 1028,5 32 9 0,0
25.03.2017 08:00:00 4,5 1,6 4,4 3,5 4,5 5,9 21 12 35 19 WNW 1028,5 42 0 0,0
25.03.2017 07:00:00 3,8 0,9 3,0 2,7 4,6 5,9 18 10 31 17 WNW 1028,7 50 0 0,0
25.03.2017 06:00:00 3,8 0,6 2,7 2,7 4,7 5,9 20 11 34 18 WNW 1029,0 44 0 0,0
25.03.2017 05:00:00 4,1 0,4 3,0 2,9 4,9 5,9 24 13 37 20 WNW 1029,0 61 0 0,0
25.03.2017 04:00:00 4,3 0,1 2,9 3,1 5,0 5,9 18 10 26 14 WNW 1029,7 53 0 0,0
25.03.2017 03:00:00 4,8 0,6 3,8 3,3 5,1 5,9 16 9 22 12 WNW 1030,3 47 0 0,0
25.03.2017 02:00:00 4,6 0,5 3,4 3,2 5,3 5,9 16 9 23 12 W 1030,8 43 0 0,0
25.03.2017 01:00:00 3,7 0,0 2,9 3,0 5,5 5,9 16 9 21 12 W 1031,0 35 0 0,0
25.03.2017 00:00:00 3,2 -0,3 1,7 2,8 5,8 5,9 16 9 21 11 W 1031,3 30 0 0,0
24.03.2017 23:00:00 3,3 -0,4 1,4 3,2 6,2 5,9 16 9 23 12 W 1031,5 27 0 0,0
24.03.2017 22:00:00 3,7 0,0 2,2 3,7 6,5 5,9 16 8 19 10 W 1031,7 28 0 0,0
24.03.2017 21:00:00 3,8 0,5 1,0 4,2 6,9 5,9 13 7 19 10 W 1031,8 25 0 0,0
24.03.2017 20:00:00 4,3 1,2 2,0 5,0 7,4 5,9 12 7 19 10 W 1031,7 21 0 0,0
24.03.2017 19:00:00 4,8 0,9 1,7 6,1 7,8 5,9 11 6 19 10 WNW 1031,8 30 0 0,0
24.03.2017 18:00:00 5,7 -0,2 3,6 8,2 7,9 5,9 11 6 23 13 WNW 1031,9 42 52 0,0
24.03.2017 17:00:00 7,4 -1,4 10,2 10,8 7,7 5,9 11 6 28 15 NW 1032,2 33 60 0,0
24.03.2017 16:00:00 8,0 -1,6 12,1 12,1 7,3 5,9 15 8 24 13 NW 1032,3 18 60 0,0
24.03.2017 15:00:00 8,2 -3,7 13,7 13,2 6,7 6,0 14 8 22 12 NW 1032,1 17 60 0,0
24.03.2017 14:00:00 8,3 -4,6 14,0 12,7 5,9 6,0 13 7 21 12 NW 1031,7 17 60 0,0
24.03.2017 13:00:00 7,8 -1,5 13,4 11,6 5,0 6,0 14 7 25 13 NW 1031,8 15 60 0,0
24.03.2017 12:00:00 7,6 -1,5 12,7 9,9 4,3 6,0 11 6 23 13 NW 1031,8 17 60 0,0
24.03.2017 11:00:00 6,0 0,1 9,8 7,4 3,6 6,0 17 9 24 13 NW 1031,6 11 60 0,0
24.03.2017 10:00:00 5,6 -0,5 7,1 5,3 3,2 6,0 17 9 23 12 NW 1031,6 32 60 0,0
24.03.2017 09:00:00 5,0 0,3 5,9 2,3 3,1 6,0 13 7 20 11 NNW 1031,0 27 60 0,0
24.03.2017 08:00:00 3,6 0,1 2,1 0,6 3,3 6,0 12 7 17 9 NNW 1030,4 56 60 0,0
24.03.2017 07:00:00 1,9 -1,3 -0,3 0,6 3,4 6,0 13 7 18 10 NW 1029,8 51 30 0,0
24.03.2017 06:00:00 1,3 -1,5 -1,7 0,6 3,6 6,0 13 7 18 10 NNW 1029,0 38 0 0,0
24.03.2017 05:00:00 2,1 -0,5 -0,9 0,3 3,9 6,0 11 6 16 9 NNW 1028,0 35 0 0,0
24.03.2017 04:00:00 3,0 -0,2 0,3 0,7 4,1 6,0 13 7 19 10 NNW 1027,4 31 0 0,0
24.03.2017 03:00:00 3,0 -0,6 0,4 0,9 4,4 6,0 13 7 21 11 NNW 1027,1 31 0 0,0
24.03.2017 02:00:00 2,9 -1,0 -1,4 1,2 4,7 6,0 11 6 16 9 NNW 1026,8 34 0 0,0
24.03.2017 01:00:00 3,2 -0,4 -0,3 1,7 5,0 6,0 11 6 16 9 N 1026,3 32 0 0,0
24.03.2017 00:00:00 2,2 -1,2 -1,8 2,5 5,3 6,0 9 5 13 7 NNW 1026,2 33 0 0,0
23.03.2017 23:00:00 3,8 -0,2 0,7 3,5 5,5 6,0 10 5 14 7 N 1026,0 29 0 0,0
23.03.2017 22:00:00 4,3 0,4 2,2 4,2 5,6 6,0 6 4 14 8 N 1025,6 31 0 0,0
23.03.2017 21:00:00 4,8 0,4 3,6 4,5 5,8 6,0 10 5 17 9 N 1025,2 33 0 0,0
23.03.2017 20:00:00 4,8 0,2 3,5 5,1 5,9 6,0 4 2 10 6 OZO 1024,4 39 0 0,0
23.03.2017 19:00:00 5,5 -0,3 4,2 5,6 6,0 6,0 4 2 15 8 NNO 1024,1 42 0 0,0
23.03.2017 18:00:00 5,4 1,0 5,1 6,2 6,0 6,0 8 4 14 8 NO 1023,5 34 0 0,0
23.03.2017 17:00:00 5,7 1,2 5,9 6,9 6,0 6,0 9 5 15 8 NO 1023,1 37 0 0,0
23.03.2017 16:00:00 5,9 1,5 6,7 7,5 5,9 6,0 11 6 19 10 NO 1022,8 34 0 0,0
23.03.2017 15:00:00 6,1 1,2 7,1 7,7 5,6 6,0 14 7 21 11 NO 1023,0 35 0 0,0
23.03.2017 14:00:00 7,0 1,2 8,3 8,4 5,2 6,0 9 5 18 10 NO 1023,0 32 0 0,0
23.03.2017 13:00:00 7,5 -0,3 9,5 8,6 4,8 6,0 10 5 21 11 O 1023,1 25 0 0,0
23.03.2017 12:00:00 7,5 -0,3 9,4 7,7 4,3 6,0 10 5 24 13 O 1023,3 29 0 0,0
23.03.2017 11:00:00 7,5 -0,8 9,5 5,9 3,9 6,0 12 6 21 12 OZO 1023,2 25 0 0,0
23.03.2017 10:00:00 6,2 0,2 6,5 4,1 3,6 6,0 10 6 20 11 OZO 1023,4 33 0 0,0
23.03.2017 09:00:00 5,3 0,3 4,7 2,2 3,6 5,9 8 5 15 8 O 1023,4 33 0 0,0
23.03.2017 08:00:00 2,9 0,6 1,7 0,8 3,7 5,9 5 3 8 4 NO 1023,0 26 0 0,0
23.03.2017 07:00:00 1,0 -0,1 -0,4 0,7 3,9 5,9 5 3 9 5 ONO 1022,8 17 0 0,0
23.03.2017 06:00:00 0,4 -0,6 -2,6 0,7 4,1 5,9 5 3 9 5 N 1022,2 9 0 0,0
23.03.2017 05:00:00 0,5 -0,5 -2,5 0,8 4,3 5,9 4 2 8 4 N 1021,9 12 0 0,0
23.03.2017 04:00:00 0,5 -1,1 -3,1 0,9 4,6 5,9 5 3 8 4 N 1021,8 22 0 0,0
23.03.2017 03:00:00 0,6 -1,0 -3,0 1,0 5,0 5,9 3 2 7 4 NNO 1022,0 34 0 0,0
23.03.2017 02:00:00 0,6 -1,5 -3,3 0,9 5,3 5,9 5 3 8 4 N 1021,9 42 0 0,0
23.03.2017 01:00:00 0,9 -1,6 -2,7 1,4 5,8 5,9 4 2 7 4 NNO 1021,8 40 0 0,0
23.03.2017 00:00:00 3,6 -1,4 -2,2 2,1 6,2 5,9 5 3 10 5 ZO 1021,6 35 0 0,0
22.03.2017 23:00:00 3,3 -1,4 -0,7 2,8 6,6 5,9 4 2 11 6 ZO 1021,4 45 0 0,0
22.03.2017 22:00:00 4,3 -1,5 -0,5 3,7 7,1 5,9 6 3 10 5 ZO 1021,2 44 0 0,0
22.03.2017 21:00:00 4,4 -1,1 -0,2 4,7 7,5 5,9 6 4 11 6 ZO 1020,6 49 0 0,0
22.03.2017 20:00:00 5,3 -0,7 1,1 5,9 7,9 5,9 7 4 13 7 OZO 1020,2 46 0 0,0
22.03.2017 19:00:00 6,0 -0,8 1,5 7,6 8,1 5,9 4 2 9 5 NNW 1019,7 54 14 0,0
22.03.2017 18:00:00 8,0 -0,3 6,0 9,7 8,1 5,9 8 4 15 8 NNW 1019,1 64 60 0,0
22.03.2017 17:00:00 9,7 -1,7 13,1 11,7 7,8 5,9 8 4 19 10 NNW 1018,5 65 60 0,0
22.03.2017 16:00:00 10,4 -1,7 15,1 12,3 7,4 5,9 11 6 27 14 WNW 1018,1 31 59 0,0
22.03.2017 15:00:00 10,4 0,0 13,7 11,7 6,9 5,9 14 8 30 16 WNW 1018,0 46 39 0,0
22.03.2017 14:00:00 10,2 -1,4 12,4 12,4 6,3 5,9 20 11 32 17 WZW 1017,8 50 45 0,0
22.03.2017 13:00:00 9,7 0,2 11,6 10,5 5,6 5,9 19 10 36 19 W 1017,7 41 41 0,0
22.03.2017 12:00:00 10,3 1,2 14,2 10,3 4,8 5,9 20 11 42 23 WZW 1017,2 17 60 0,0
22.03.2017 11:00:00 8,6 0,1 11,3 8,1 4,2 5,9 16 8 29 16 ZW 1017,0 11 59 0,0
22.03.2017 10:00:00 7,0 -0,4 8,6 5,4 3,8 5,8 19 11 29 15 WZW 1016,7 18 60 0,0
22.03.2017 09:00:00 5,6 -0,4 5,9 2,6 3,7 5,8 16 9 25 13 WZW 1015,9 27 60 0,0
22.03.2017 08:00:00 3,6 -0,8 2,4 0,9 3,9 5,8 15 8 26 14 WZW 1015,1 37 60 0,0
22.03.2017 07:00:00 1,9 -1,6 0,4 0,4 4,1 5,8 14 8 24 13 WZW 1014,8 44 23 0,0
22.03.2017 06:00:00 1,6 -1,6 0,1 0,4 4,4 5,8 16 9 23 12 WZW 1014,4 42 0 0,0
22.03.2017 05:00:00 1,6 -1,3 0,0 0,7 4,7 5,8 15 8 23 12 ZW 1014,0 36 0 0,0
22.03.2017 04:00:00 1,6 -1,4 -0,1 1,0 5,0 5,8 14 7 23 12 WZW 1013,5 35 0 0,0
22.03.2017 03:00:00 2,0 -1,1 0,5 1,4 5,3 5,8 15 8 20 11 WZW 1013,1 36 0 0,0
22.03.2017 02:00:00 3,1 -1,0 1,6 1,8 5,7 5,8 16 9 29 15 WZW 1012,5 37 0 0,0
22.03.2017 01:00:00 3,2 -0,8 1,5 2,2 6,0 5,8 20 11 29 16 WZW 1012,1 38 0 0,0
22.03.2017 00:00:00 3,6 -0,8 1,7 2,7 6,4 5,7 20 11 34 18 W 1011,4 35 0 0,0
21.03.2017 23:00:00 4,1 -0,8 2,7 3,3 6,8 5,7 25 13 39 21 W 1010,9 35 0 0,0
21.03.2017 22:00:00 4,4 -0,4 3,0 3,9 7,2 5,7 22 12 36 20 W 1010,0 40 0 0,0
21.03.2017 21:00:00 4,8 -0,1 3,2 4,6 7,6 5,7 20 11 35 19 W 1009,2 40 0 0,0
21.03.2017 20:00:00 5,5 0,8 3,8 5,5 8,0 5,7 20 11 32 18 W 1008,4 45 0 0,0
21.03.2017 19:00:00 6,2 1,4 4,7 6,7 8,3 5,7 20 11 33 18 W 1007,5 44 0 0,0
21.03.2017 18:00:00 7,2 1,7 6,6 8,0 8,5 5,7 16 8 32 17 W 1006,4 61 11 0,0
21.03.2017 17:00:00 6,9 1,1 6,7 8,7 8,7 5,7 23 12 53 28 W 1005,5 70 0 0,0
21.03.2017 16:00:00 7,4 3,5 8,0 10,1 8,7 5,7 27 15 65 35 W 1005,0 41 6 0,0
21.03.2017 15:00:00 11,4 1,6 12,0 11,5 8,5 5,7 21 11 45 25 ZW 1003,6 67 9 0,0
21.03.2017 14:00:00 11,5 1,3 14,8 12,8 8,1 5,6 23 12 36 19 ZW 1004,0 33 37 0,0
21.03.2017 13:00:00 10,5 1,8 11,8 12,8 7,5 5,6 24 13 44 24 WZW 1004,1 60 42 0,0
21.03.2017 12:00:00 10,7 2,4 14,0 11,7 7,0 5,6 24 13 37 20 WZW 1004,0 23 59 0,0
21.03.2017 11:00:00 9,7 2,0 11,8 9,8 6,6 5,6 25 14 43 23 WZW 1003,7 21 54 0,0
21.03.2017 10:00:00 8,5 2,9 8,6 8,6 6,3 5,6 30 16 43 23 WZW 1003,3 26 58 0,0
21.03.2017 09:00:00 8,2 4,5 8,2 6,6 6,3 5,6 21 11 37 20 WZW 1002,9 27 59 0,0
21.03.2017 08:00:00 6,9 4,4 5,8 5,0 6,5 5,6 20 11 32 17 WZW 1002,5 28 60 0,0
21.03.2017 07:00:00 5,7 4,0 4,2 4,7 6,8 5,6 13 7 22 12 WZW 1001,9 24 24 0,0
21.03.2017 06:00:00 5,9 3,6 4,2 5,3 7,0 5,6 16 8 30 16 WZW 1001,3 45 0 0,0
21.03.2017 05:00:00 6,6 4,4 5,0 6,3 7,2 5,6 22 12 37 20 W 1000,8 43 0 0,0
21.03.2017 04:00:00 7,2 4,7 6,2 6,9 7,3 5,6 24 13 43 23 W 1000,3 52 0 0,0
21.03.2017 03:00:00 7,7 4,9 6,4 7,4 7,4 5,6 23 13 53 29 W 999,6 67 0 0,0
21.03.2017 02:00:00 8,8 5,4 7,4 8,1 7,5 5,6 32 17 62 33 W 999,0 68 0 0,2
21.03.2017 01:00:00 9,6 7,8 8,7 8,6 7,5 5,6 29 16 56 30 W 998,2 3,4 0 0,0
21.03.2017 00:00:00 10,1 8,2 9,2 8,7 7,5 5,6 28 15 51 28 ZW 997,7 10 0 0,0
20.03.2017 23:00:00 9,7 8,8 9,2 8,7 7,5 5,6 20 11 39 21 ZZW 998,1 6 0 1,2
20.03.2017 22:00:00 9,6 8,8 9,2 8,7 7,4 5,6 19 10 33 18 ZW 999,0 5 0 2,8
20.03.2017 21:00:00 9,4 8,6 9,1 8,6 7,5 5,6 16 9 34 18 ZZW 999,5 1,4 0 0,3
20.03.2017 20:00:00 9,4 8,4 9,0 8,6 7,5 5,6 16 9 29 16 ZZW 999,9 8 0 0,0
20.03.2017 19:00:00 9,6 8,7 9,2 8,7 7,5 5,6 14 8 25 14 ZZW 1000,7 9 0 0,3
20.03.2017 18:00:00 7,9 7,4 7,9 8,9 7,6 5,6 8 4 18 10 Z 1001,1 3,9 0 1,4
20.03.2017 17:00:00 7,4 6,9 7,8 9,5 7,5 5,6 8 4 14 8 ZZO 1001,8 1,1 0 1,1
20.03.2017 16:00:00 7,1 6,1 8,2 10,4 7,4 5,6 8 4 15 8 ZZO 1002,7 6 0 0,6
20.03.2017 15:00:00 8,5 6,5 9,0 11,1 7,1 5,6 7 4 16 8 Z 1003,4 8 0 0,2
20.03.2017 14:00:00 10,0 6,3 10,9 11,6 6,6 5,6 9 5 20 11 ZW 1003,4 29 0 0,0
20.03.2017 13:00:00 9,7 5,7 11,4 12,1 6,0 5,6 12 7 19 10 WZW 1003,8 43 26 0,0
20.03.2017 12:00:00 8,7 5,2 10,9 10,2 5,6 5,6 16 9 27 14 W 1004,1 37 15 0,0
20.03.2017 11:00:00 7,6 5,4 8,5 8,6 5,3 5,6 18 10 25 13 WZW 1004,1 34 0 0,0
20.03.2017 10:00:00 6,2 5,0 7,0 6,9 5,1 5,6 13 7 30 16 W 1003,9 21 0 0,0
20.03.2017 09:00:00 5,7 4,5 6,1 6,4 5,0 5,6 15 8 31 17 W 1003,9 30 0 0,0
20.03.2017 08:00:00 5,8 4,3 5,9 5,9 4,9 5,6 24 13 36 19 W 1003,4 20 0 0,0
20.03.2017 07:00:00 5,8 4,7 5,5 5,4 4,8 5,6 16 9 34 19 W 1002,7 36 0 0,0
20.03.2017 06:00:00 6,0 4,9 5,5 5,5 4,7 5,6 23 12 48 26 W 1002,2 24 0 0,1
20.03.2017 05:00:00 6,2 5,5 5,9 5,5 4,6 5,6 27 14 41 22 W 1001,4 3,5 0 0,2
20.03.2017 04:00:00 6,4 5,6 6,1 5,6 4,5 5,6 27 14 46 25 W 1000,4 3,8 0 0,1
20.03.2017 03:00:00 6,7 6,0 6,4 5,5 4,3 5,6 31 17 48 26 WNW 999,8 5 0 0,1
20.03.2017 02:00:00 7,0 6,2 6,6 5,2 4,2 5,6 34 18 49 26 W 999,3 11 0 0,0
20.03.2017 01:00:00 7,0 6,2 6,6 4,4 4,1 5,6 27 15 48 26 W 998,7 15 0 0,5
20.03.2017 00:00:00 4,1 3,6 4,0 3,6 4,1 5,6 13 7 19 10 WZW 998,6 4,1 0 0,4

tt = temperatuur
td = dauwpunt
tt 5cm = temperatuur 5cm
tt -5cm = temperatuur -5cm
tt -20cm = temperatuur -20cm
tt -100cm = temperatuur -100cm
ff = windsnelheid
fx = windstoten
dd = windrichting
ppp = luchtdruk
vv = zicht
sd = Zonneschijnduur
rr = neerslag

Weerstations in de omgeving